Location: Unspecified
(0.0000°N, 0.0000°E)
Time: 00:12:24
(UTC+00:00)

STARLINK-32799 - Pass Details

Date: 08 March 2026
Orbit: 482 x 484 km, 43.0° (Epoch: 13 April)

Event Time Altitude Azimuth Distance (km) Brightness Sun altitude
Rises 20:04:26 0° 253° (WSW) 2,530 ? -28.3°
Reaches altitude 10° 20:07:13 10° 274° (W) 1,648 ? -29.0°
Enters shadow 20:09:16 16° 307° (NW) 1,304 ? -29.5°
